Location: Cottbus
(51.7000°N, 14.3000°E)
Time: 21:30:28
(UTC+02:00)

N. Korean satellite - Visible Passes

Search period start: 19 October 2021 00:00
Search period end: 29 October 2021 00:00
Orbit: 450 x 495 km, 97.3° (Epoch: 19 October)

Date Brightness Start Highest point End Pass type
(mag) Time Alt. Az. Time Alt. Az. Time Alt. Az.
19 Oct 10.0 05:14:35 10° ENE 05:16:22 13° E 05:18:08 10° ESE visible
19 Oct 6.6 06:46:20 10° N 06:50:00 64° WNW 06:53:37 10° SSW visible
20 Oct 7.2 06:18:17 10° NNE 06:21:56 61° ESE 06:25:33 10° S visible
20 Oct 10.0 18:32:18 10° SW 18:34:29 15° W 18:36:42 10° NW visible
21 Oct 8.7 05:50:29 10° NNE 05:53:46 30° E 05:57:01 10° SSE visible
22 Oct 9.8 05:23:07 10° NE 05:25:28 16° E 05:27:47 10° SE visible
22 Oct 6.8 06:55:24 10° N 06:58:58 51° WNW 07:02:31 10° SSW visible
23 Oct 6.8 06:27:14 10° NNE 06:30:56 78° ESE 06:34:33 10° S visible
23 Oct 10.2 18:41:54 10° WSW 18:43:32 13° W 18:45:11 10° WNW visible
24 Oct 8.2 05:59:18 10° NNE 06:02:45 37° E 06:06:10 10° SSE visible
25 Oct 9.5 05:31:44 10° NE 05:34:28 19° E 05:37:10 10° SE visible
25 Oct 7.0 07:04:24 10° N 07:07:52 40° WNW 07:11:17 10° SW visible
26 Oct 10.3 05:05:42 10° E 05:06:03 10° E 05:06:24 10° E visible
26 Oct 6.5 06:36:08 10° NNE 06:39:49 83° WNW 06:43:27 10° SSW visible
26 Oct 10.6 18:52:03 10° W 18:52:31 10° W 18:52:59 10° WNW visible
27 Oct 7.7 06:08:06 10° NNE 06:11:40 47° E 06:15:09 10° S visible
27 Oct 9.8 18:21:24 10° SW 18:24:05 20° W 18:26:49 10° NW visible
28 Oct 9.1 05:40:22 10° NE 05:43:23 24° E 05:46:21 10° SSE visible
28 Oct 7.3 07:13:20 10° N 07:16:39 33° WNW 07:19:55 10° SW visible
